| time (UTC) | temp F | wind direction | speed knots | gust knots | rain 1hr in | rain 24hr in | rain mn in | humidity % | barometer mb |
| 20260903074541 | 56 | 184 | 2.6 | 7.0 | 0.01 | 0.02 | 0.01 | 93 | 1008.7 |
| 20260903073038 | 56 | 192 | 3.5 | 7.8 | 0.01 | 0.02 | 0.01 | 92 | 1008.6 |
| 20260903071517 | 57 | 194 | 5.2 | 10.4 | 0.01 | 0.02 | 0.01 | 92 | 1008.5 |
| 20260903070015 | 57 | 193 | 2.6 | 8.7 | 0.00 | 0.01 | 0.00 | 92 | 1008.5 |
| 20260903064555 | 57 | 184 | 1.7 | 10.4 | 0.00 | 0.01 | 0.00 | 92 | 1008.4 |
| 20260903063053 | 57 | 187 | 1.7 | 7.8 | 0.00 | 0.01 | 0.00 | 92 | 1008.4 |
| 20260903061536 | 57 | 197 | 0.0 | 7.8 | 0.00 | 0.01 | 0.00 | 93 | 1008.6 |
| 20260903060040 | 57 | 177 | 2.6 | 8.7 | 0.00 | 0.01 | 0.00 | 93 | 1008.6 |
| 20260903054519 | 57 | 182 | 1.7 | 10.4 | 0.00 | 0.01 | 0.00 | 93 | 1008.6 |
| 20260903053017 | 57 | 202 | 2.6 | 7.8 | 0.00 | 0.01 | 0.00 | 93 | 1008.7 |
| 20260903051605 | 57 | 173 | 1.7 | 6.1 | 0.00 | 0.01 | 0.00 | 94 | 1008.5 |
| 20260903050055 | 57 | 183 | 2.6 | 6.1 | 0.00 | 0.01 | 0.00 | 94 | 1008.4 |
| 20260903044542 | 57 | 186 | 0.9 | 7.0 | 0.00 | 0.01 | 0.00 | 94 | 1008.4 |
| 20260903043040 | 57 | 188 | 0.9 | 5.2 | 0.00 | 0.01 | 0.00 | 94 | 1008.3 |
| 20260903041539 | 57 | 188 | 0.0 | 4.3 | 0.00 | 0.01 | 0.00 | 93 | 1008.1 |
| 20260903040036 | 58 | 192 | 0.0 | 0.0 | 0.00 | 0.01 | 0.00 | 92 | 1007.9 |
| 20260903034533 | 58 | 192 | 0.0 | 6.1 | 0.00 | 0.01 | 0.00 | 91 | 1007.6 |
| 20260903033031 | 58 | 194 | 0.9 | 6.1 | 0.00 | 0.01 | 0.00 | 91 | 1007.5 |
| 20260903031538 | 59 | 182 | 0.0 | 8.7 | 0.00 | 0.01 | 0.00 | 90 | 1007.4 |
| 20260903030025 | 60 | 178 | 0.9 | 6.1 | 0.00 | 0.01 | 0.00 | 89 | 1007.2 |
| 20260903024504 | 61 | 210 | 0.0 | 4.3 | 0.00 | 0.01 | 0.00 | 89 | 1007.0 |
| 20260903023002 | 61 | 210 | 0.0 | 7.0 | 0.00 | 0.01 | 0.00 | 85 | 1007.0 |
| 20260903021547 | 62 | 227 | 0.0 | 6.1 | 0.00 | 0.01 | 0.00 | 84 | 1006.6 |
| 20260903020038 | 62 | 215 | 0.0 | 6.1 | 0.00 | 0.01 | 0.00 | 84 | 1006.6 |
| 20260903014518 | 63 | 226 | 0.9 | 7.0 | 0.00 | 0.01 | 0.01 | 83 | 1006.5 |
| 20260903013020 | 63 | 225 | 2.6 | 9.6 | 0.00 | 0.01 | 0.01 | 83 | 1006.5 |
| 20260903011611 | 64 | 196 | 2.6 | 7.8 | 0.00 | 0.01 | 0.01 | 84 | 1006.3 |
| 20260903004542 | 62 | 183 | 1.7 | 7.8 | 0.00 | 0.04 | 0.01 | 89 | 1006.1 |
| 20260903003046 | 62 | 199 | 2.6 | 6.1 | 0.00 | 0.04 | 0.01 | 89 | 1006.1 |
| 20260903001523 | 63 | 207 | 1.7 | 7.0 | 0.00 | 0.04 | 0.01 | 88 | 1006.0 |
| 20260903000037 | 62 | 210 | 3.5 | 10.4 | 0.00 | 0.04 | 0.01 | 94 | 1006.0 |
| 20260902234509 | 61 | 203 | 0.0 | 5.2 | 0.00 | 0.04 | 0.01 | 96 | 1005.8 |
| 20260902233005 | 60 | 207 | 0.9 | 7.8 | 0.00 | 0.04 | 0.01 | 95 | 1006.0 |
| 20260902231550 | 60 | 205 | 0.9 | 7.8 | 0.00 | 0.04 | 0.01 | 95 | 1005.9 |
| 20260902224529 | 59 | 247 | 1.7 | 8.7 | 0.00 | 0.04 | 0.01 | 94 | 1005.7 |
| 20260902223029 | 60 | 245 | 3.5 | 9.6 | 0.00 | 0.04 | 0.01 | 92 | 1005.4 |
| 20260902221516 | 59 | 213 | 0.9 | 7.8 | 0.00 | 0.04 | 0.01 | 93 | 1005.4 |
| 20260902220022 | 59 | 187 | 0.9 | 13.0 | 0.00 | 0.04 | 0.01 | 93 | 1005.3 |
| 20260902214605 | 59 | 193 | 6.1 | 14.8 | 0.00 | 0.04 | 0.01 | 93 | 1005.2 |
| 20260902213051 | 59 | 220 | 5.2 | 11.3 | 0.00 | 0.04 | 0.01 | 94 | 1005.2 |
| 20260902211533 | 59 | 190 | 4.3 | 13.9 | 0.00 | 0.04 | 0.01 | 94 | 1005.2 |
| 20260902210035 | 59 | 186 | 2.6 | 11.3 | 0.00 | 0.04 | 0.01 | 94 | 1005.1 |
| 20260902204514 | 58 | 153 | 2.6 | 10.4 | 0.01 | 0.04 | 0.01 | 94 | 1005.0 |
| 20260902203015 | 58 | 169 | 1.7 | 7.8 | 0.01 | 0.04 | 0.01 | 95 | 1004.9 |
| 20260902201556 | 58 | 167 | 2.6 | 7.8 | 0.01 | 0.04 | 0.01 | 94 | 1004.8 |
| 20260902200053 | 58 | 166 | 5.2 | 13.0 | 0.01 | 0.04 | 0.01 | 94 | 1004.8 |
| 20260902194532 | 58 | 164 | 0.9 | 9.6 | 0.00 | 0.03 | 0.00 | 94 | 1005.1 |
| 20260902193031 | 58 | 167 | 2.6 | 7.8 | 0.00 | 0.03 | 0.00 | 94 | 1005.3 |
| 20260902191518 | 58 | 189 | 0.0 | 0.0 | 0.00 | 0.03 | 0.00 | 94 | 1005.5 |
| 20260902190012 | 58 | 181 | 0.0 | 4.3 | 0.00 | 0.03 | 0.00 | 93 | 1005.6 |
| 20260902184551 | 58 | 181 | 0.0 | 5.2 | 0.00 | 0.03 | 0.00 | 92 | 1005.6 |
| 20260902183100 | 59 | 176 | 2.6 | 7.0 | 0.00 | 0.03 | 0.00 | 92 | 1005.6 |
| 20260902181531 | 59 | 183 | 2.6 | 7.8 | 0.00 | 0.03 | 0.00 | 90 | 1006.0 |
| 20260902180032 | 59 | 223 | 0.9 | 10.4 | 0.00 | 0.03 | 0.00 | 90 | 1006.2 |
| 20260902174507 | 60 | 213 | 0.9 | 10.4 | 0.00 | 0.03 | 0.00 | 88 | 1006.1 |
| 20260902173017 | 61 | 217 | 0.0 | 0.0 | 0.00 | 0.03 | 0.00 | 86 | 1006.1 |
| 20260902171551 | 61 | 217 | 0.0 | 3.5 | 0.00 | 0.03 | 0.00 | 83 | 1005.9 |
| 20260902170055 | 62 | 213 | 0.9 | 6.1 | 0.00 | 0.03 | 0.00 | 79 | 1005.9 |
| 20260902164535 | 63 | 202 | 3.5 | 8.7 | 0.00 | 0.03 | 0.00 | 76 | 1005.7 |
| 20260902163035 | 63 | 196 | 1.7 | 6.1 | 0.00 | 0.03 | 0.00 | 75 | 1005.6 |
| 20260902161534 | 63 | 207 | 0.0 | 0.0 | 0.00 | 0.03 | 0.00 | 78 | 1005.6 |
| 20260902160049 | 63 | 207 | 0.0 | 2.6 | 0.00 | 0.03 | 0.00 | 78 | 1005.6 |
| 20260902154541 | 63 | 208 | 2.6 | 9.6 | 0.00 | 0.03 | 0.00 | 77 | 1005.8 |
| 20260902153038 | 63 | 166 | 0.9 | 7.0 | 0.00 | 0.03 | 0.00 | 74 | 1006.0 |
| 20260902151528 | 62 | 167 | 0.0 | 1.7 | 0.00 | 0.03 | 0.00 | 75 | 1006.1 |
| 20260902150028 | 62 | 167 | 0.0 | 0.0 | 0.00 | 0.03 | 0.00 | 77 | 1006.1 |
| 20260902144513 | 61 | 167 | 0.0 | 4.3 | 0.00 | 0.03 | 0.00 | 77 | 1006.3 |
| 20260902143007 | 61 | 167 | 0.0 | 3.5 | 0.00 | 0.03 | 0.00 | 78 | 1006.4 |
| 20260902141605 | 61 | 167 | 0.0 | 4.3 | 0.00 | 0.03 | 0.00 | 78 | 1006.6 |
| 20260902140048 | 61 | 167 | 2.6 | 7.0 | 0.00 | 0.03 | 0.00 | 79 | 1006.7 |
| 20260902134528 | 60 | 169 | 0.0 | 3.5 | 0.00 | 0.03 | 0.00 | 80 | 1006.9 |
| 20260902133032 | 60 | 169 | 0.0 | 4.3 | 0.00 | 0.03 | 0.00 | 80 | 1007.0 |
| 20260902131510 | 60 | 169 | 0.0 | 7.0 | 0.00 | 0.03 | 0.00 | 80 | 1007.3 |
| 20260902130005 | 60 | 169 | 0.9 | 6.1 | 0.00 | 0.03 | 0.00 | 80 | 1007.6 |
| 20260902124606 | 60 | 169 | 0.0 | 4.3 | 0.00 | 0.03 | 0.00 | 80 | 1007.8 |
| 20260902123132 | 60 | 186 | 0.9 | 4.3 | 0.00 | 0.03 | 0.00 | 81 | 1007.9 |
| 20260902121552 | 60 | 186 | 0.0 | 3.5 | 0.00 | 0.03 | 0.00 | 81 | 1008.2 |
| 20260902120050 | 60 | 186 | 0.0 | 4.3 | 0.00 | 0.03 | 0.00 | 81 | 1008.4 |
| 20260902114548 | 60 | 186 | 0.0 | 4.3 | 0.00 | 0.03 | 0.00 | 81 | 1008.5 |
| 20260902113045 | 60 | 186 | 0.0 | 3.5 | 0.00 | 0.03 | 0.00 | 81 | 1008.6 |
| 20260902111548 | 60 | 186 | 0.9 | 4.3 | 0.00 | 0.03 | 0.00 | 81 | 1008.8 |
| 20260902110053 | 60 | 186 | 0.0 | 6.1 | 0.00 | 0.03 | 0.00 | 81 | 1008.9 |
| 20260902104541 | 60 | 186 | 1.7 | 7.8 | 0.00 | 0.03 | 0.00 | 82 | 1008.9 |
| 20260902103023 | 60 | 187 | 0.0 | 5.2 | 0.00 | 0.03 | 0.00 | 82 | 1009.1 |
| 20260902101521 | 60 | 188 | 0.0 | 5.2 | 0.00 | 0.03 | 0.00 | 83 | 1009.0 |
| 20260902100004 | 60 | 190 | 0.0 | 5.2 | 0.00 | 0.03 | 0.00 | 84 | 1009.1 |
| 20260902094503 | 60 | 190 | 0.0 | 3.5 | 0.00 | 0.03 | 0.00 | 84 | 1009.1 |
| 20260902093044 | 60 | 190 | 0.0 | 6.1 | 0.00 | 0.03 | 0.00 | 84 | 1009.2 |
| 20260902091559 | 60 | 190 | 0.0 | 5.2 | 0.00 | 0.03 | 0.00 | 84 | 1009.5 |
| 20260902090033 | 60 | 190 | 1.7 | 5.2 | 0.00 | 0.03 | 0.00 | 84 | 1009.7 |
| 20260902084522 | 60 | 195 | 0.0 | 5.2 | 0.00 | 0.03 | 0.00 | 84 | 1009.9 |
| 20260902083004 | 61 | 196 | 0.0 | 4.3 | 0.00 | 0.03 | 0.00 | 82 | 1009.8 |
| 20260902081500 | 61 | 197 | 0.0 | 6.1 | 0.00 | 0.03 | 0.00 | 82 | 1009.8 |
| 20260902080046 | 62 | 188 | 0.0 | 5.2 | 0.00 | 0.03 | 0.00 | 80 | 1009.8 |